Location: Rittman
(40.9781°N, 81.7821°W)
Time: 20:38:18
(UTC+00:00)

Daily predictions for brighter satellites

Satellite Brightness Start Highest point End
(mag) Time Altitude Azimuth Time Altitude Azimuth Time Altitude Azimuth
STARLINK 1029 3.1 12:00:03 10° WNW 12:02:50 48° SW 12:05:40 10° SSE
STARLINK 1040 3.3 12:00:12 10° WNW 12:02:58 44° SW 12:05:46 10° SSE
STARLINK 1060 3.2 12:00:16 10° WNW 12:03:04 48° SW 12:05:53 10° SSE
STARLINK 1030 3.2 12:00:26 10° WNW 12:03:17 48° SW 12:06:10 10° SSE
STARLINK 1020 3.2 12:00:42 10° WNW 12:03:31 47° SW 12:06:20 10° SSE
STARLINK 1033 3.2 12:01:22 10° WNW 12:04:11 46° SW 12:07:00 10° SSE
STARLINK 1031 3.2 12:01:36 10° WNW 12:04:25 46° SW 12:07:14 10° SSE
STARLINK 1024 3.2 12:01:46 10° WNW 12:04:38 46° SW 12:07:29 10° SSE
STARLINK 1035 3.2 12:02:02 10° WNW 12:04:51 45° SW 12:07:40 10° SSE
STARLINK 1032 3.2 12:02:16 10° WNW 12:05:05 45° SW 12:07:53 10° SSE
STARLINK 1011 3.3 12:02:26 10° WNW 12:05:17 45° SW 12:08:08 10° SSE
Envisat 3.8 12:00:18 10° NNE 12:05:19 57° E 12:10:18 10° S
STARLINK 1036 3.3 12:02:43 10° WNW 12:05:31 44° SW 12:08:20 10° SSE
STARLINK 1055 3.4 12:02:11 10° WNW 12:05:37 59° SW 12:09:01 10° SE
Meteor 1-13 Rocket 4.2 12:00:09 10° N 12:05:42 87° W 12:11:18 10° S
STARLINK 1047 3.3 12:03:11 10° WNW 12:05:59 44° SW 12:08:46 10° SSE
CZ-4C R/B 4.4 12:01:41 10° WNW 12:06:37 18° WSW 12:11:47 10° SW
Cosmos 2263 Rocket 3.2 12:02:51 10° WSW 12:07:18 24° NW 12:11:46 10° N
Cosmos 371 Rocket 3.3 12:02:47 10° SSW 12:07:34 63° WNW 12:12:25 10° NNE
STARLINK 1022 3.4 12:04:31 10° WNW 12:07:56 56° SW 12:11:20 10° SE
Okean O Rocket 2.7 12:05:02 10° NNW 12:08:28 23° WNW 12:11:54 10° WSW
Cosmos 1666 3.7 12:06:38 10° S 12:10:20 52° E 12:14:04 10° NNE
SMAP 3.1 12:06:38 10° N 12:11:14 62° WNW 12:15:49 10° SSW
NOSS 3-4 (A) 4.4 22:17:13 10° WSW 22:22:54 42° NW 22:28:55 10° NNE
NOSS 3-4 (C) 4.4 22:17:19 10° WSW 22:23:00 42° NW 22:29:02 10° NNE
Helios 1A Rocket 3.3 22:20:46 10° S 22:24:52 72° WSW 22:28:58 10° NNW
Cosmos 1733 Rocket 3.4 22:23:21 10° N 22:27:34 45° ENE 22:31:47 10° SSE
Nadezhda 4 Rocket 4.4 22:21:44 10° SSE 22:27:41 45° E 22:33:39 10° NNE
NOSS 2 (A) 4.0 22:30:24 10° NNW 22:32:46 54° NE 22:35:04 10° SE
Cosmos 2278 Rocket 2.4 22:27:32 10° NNW 22:33:01 48° ENE 22:38:27 10° SE
Cosmos 2360 Rocket 4.2 22:30:17 10° WSW 22:34:42 23° NW 22:39:09 10° N
Meteor 2-6 Rocket 4.3 22:29:29 10° SSW 22:34:52 82° W 22:40:19 10° N
Cosmos 1812 2.8 22:32:57 10° S 22:36:44 55° E 22:40:31 10° NNE
OAO 2 Rocket 4.4 22:32:11 10° WSW 22:36:46 38° S 22:41:26 10° ESE
STARLINK-29 4.3 22:36:13 10° SSW 22:39:20 30° SE 22:42:20 11° ENE
ATLAS 5 CENTAUR R/B 0.7 22:41:25 10° SSW 22:44:22 68° SE 22:46:09 12° NE
SL-16 R/B 3.4 22:41:23 10° SSE 22:45:40 23° E 22:49:48 11° NE
NOAA 12 4.4 22:43:13 10° SE 22:48:15 45° ENE 22:53:16 10° N
YAOGAN 6 3.9 22:48:01 10° ESE 22:50:35 19° ENE 22:53:12 10° NNE
Cosmos 921 Rocket 4.5 22:50:05 10° NNE 22:52:47 16° ENE 22:55:29 10° E
Cosmos 2333 Rocket 3.3 22:47:24 10° SW 22:52:50 44° WNW 22:58:21 10° NNE
ISS -3.6 22:50:39 10° NW 22:53:56 52° NNE 22:57:14 10° ESE
Cosmos 1500 3.1 22:51:59 10° N 22:55:46 84° E 22:59:30 10° S
SKYMED 2 4.5 22:52:22 10° NE 22:56:10 29° E 22:59:55 10° SSE
Cosmos 2237 Rocket 2.2 22:50:46 10° SSW 22:56:27 77° ESE 23:02:10 10° NNE
RESURS DK-1 3.8 22:53:00 10° SW 22:56:47 35° WNW 23:00:36 10° N
STARLINK-60 3.0 22:57:19 10° SW 23:00:42 84° SE 23:03:02 19° NE
Cosmos 1862 Rocket 3.7 22:58:55 10° SSW 23:03:15 75° W 23:07:38 10° N
Okean O Rocket 4.1 23:01:17 10° SSW 23:04:52 25° W 23:08:28 10° NW
Cosmos 2251 Rocket 3.9 22:59:56 10° SSW 23:05:13 69° WNW 23:10:31 10° NNE
Cosmos 1703 Rocket 4.0 23:02:04 10° SSE 23:06:14 40° E 23:10:26 10° NNE
Shenzhou-11 Module 1.8 23:03:59 10° WNW 23:06:41 58° N 23:07:55 27° ENE
CORIOLIS 4.2 23:01:15 10° SSE 23:06:42 88° ENE 23:12:11 10° NNW
H-2A R/B 2.9 23:03:48 10° S 23:07:29 73° WSW 23:11:11 10° NNW
Cosmos 2219 Rocket 3.7 23:05:33 10° WSW 23:10:33 32° WNW 23:15:36 10° N
Cosmos 2242 Rocket 3.6 23:06:55 10° S 23:11:27 82° E 23:16:03 10° N
Cosmos 1441 Rocket 3.9 23:09:21 10° NNE 23:12:45 30° ENE 23:16:06 10° SE
Meteor 1-11 Rocket 4.1 23:07:01 10° NNW 23:12:58 73° W 23:18:52 10° S
Meteor 1-27 Rocket 4.0 23:08:00 10° SSW 23:13:42 73° W 23:19:33 10° N
SMAP 3.6 23:09:20 10° S 23:13:56 62° W 23:18:34 10° NNW
NOSS 0 Rocket 4.4 23:08:38 10° SW 23:14:46 64° WNW 23:20:59 10° NNE
Envisat 2.9 23:14:31 10° SSE 23:19:34 74° ENE 23:24:39 10° N
Cosmos 1536 2.9 23:16:35 10° N 23:20:36 80° W 23:24:35 10° S
Okean-O 2.6 23:17:00 10° SSE 23:21:25 87° ENE 23:25:53 10° NNW
Cosmos 1900 4.2 23:17:06 10° NNW 23:22:00 75° ENE 23:26:51 10° SE
Cosmos 2195 Rocket 4.4 23:20:30 10° S 23:26:38 69° E 23:32:53 10° NNE
Cosmos 1943 Rocket 3.8 23:23:43 10° N 23:25:52 15° NNE 23:25:52 15° NNE
Cosmos 1980 4.3 23:21:52 10° SW 23:27:24 56° WNW 23:32:58 10° NNE
Cosmos 1140 Rocket 4.2 23:24:09 10° SSE 23:28:35 31° E 23:29:42 28° ENE
Cosmos 407 Rocket 3.7 23:24:31 10° S 23:29:27 47° ESE 23:32:18 24° NE
USA 215 4.4 23:24:30 13° NE 23:29:29 31° NNW 23:35:05 10° W
Lacrosse 5 rocket 3.2 23:28:14 10° W 23:31:39 23° NNW 23:34:01 14° NNE
CSL-04 Rocket 3.8 23:27:20 10° SE 23:32:18 44° ENE 23:37:18 10° N
CZ-4 R/B 1.3 23:29:36 10° SSE 23:33:25 52° ENE 23:37:11 10° N
Genesis I 3.9 23:30:21 10° NNW 23:33:30 33° NE 23:33:30 33° NE
Cosmos 1092 Rocket 4.0 23:28:12 10° S 23:34:31 86° W 23:40:50 10° N
Cosmos 2297 3.9 23:30:33 10° NNW 23:36:03 48° ENE 23:41:30 10° SE
OAO 3 Rocket 4.1 23:31:57 10° WSW 23:36:21 40° S 23:38:39 24° ESE
Meteor 1-18 Rocket 4.3 23:34:16 10° S 23:39:48 52° E 23:43:56 18° NNE
Cosmos 1666 2.9 23:36:30 10° NNW 23:40:14 70° W 23:43:56 10° S
Okean 1 3.4 23:36:26 10° S 23:40:19 52° E 23:41:01 45° ENE
SL-4 R/B 3.8 23:38:07 10° NW 23:40:54 18° N 23:41:33 18° N
Cosmos 1908 Rocket 3.8 23:36:34 10° NNW 23:40:58 71° W 23:45:17 10° S
Cosmos 292 Rocket 3.7 23:37:45 10° NNW 23:42:39 89° WSW 23:47:30 10° SSE
Cosmos 1867 4.5 23:38:19 10° NNW 23:42:45 28° NE 23:42:45 28° NE
COSMO-SKYMED 1 2.6 23:40:17 12° N 23:44:16 82° WNW 23:48:36 10° SSW
USA 116 4.4 23:40:41 14° NNE 23:45:13 65° E 23:50:13 10° S
FALCON 9 DEB 3.7 23:42:15 10° WSW 23:45:40 52° NW 23:46:15 45° N
CSL-04 Debris 4.1 23:42:13 10° SSE 23:47:36 63° ENE 23:52:59 10° N
YAOGAN 1 2.5 23:44:48 10° SSE 23:49:04 63° ENE 23:53:22 10° N
BREEZE-M R/B 4.2 23:48:44 10° NW 23:52:07 22° N 23:52:07 22° N
